This is the latest recevied weather packets stored in our database for station/object KD4EED. If no packets are shown the sender has not sent any weather packets the latest 10 day(s).
| Time | Temp. | Humidity | Pressure | Rain* | Wind** | Luminosity | Snow |
|---|---|---|---|---|---|---|---|
| 1777476267 | 13.89° C | 81% | 1015 hPa | - | - | 39 W/m² | - |
| 1777475963 | 13.33° C | 82% | 1015 hPa | - | - | 38 W/m² | - |
| 1777475660 | 13.33° C | 85% | 1015.1 hPa | - | - | 36 W/m² | - |
| 1777475356 | 12.78° C | 86% | 1014.9 hPa | - | - | 34 W/m² | - |
| 1777475051 | 12.22° C | 87% | 1015.1 hPa | - | - | 32 W/m² | - |
| 1777474748 | 12.22° C | 86% | 1015 hPa | - | - | 31 W/m² | - |
| 1777474444 | 11.67° C | 84% | 1015 hPa | - | - | 29 W/m² | - |
| 1777474140 | 11.67° C | 84% | 1014.9 hPa | - | - | 28 W/m² | - |
| 1777473839 | 11.67° C | 82% | 1014.9 hPa | - | - | 27 W/m² | - |
| 1777473535 | 11.11° C | 83% | 1014.8 hPa | - | - | 26 W/m² | - |
| 1777473231 | 11.11° C | 82% | 1014.9 hPa | - | - | 25 W/m² | - |
| 1777472927 | 11.11° C | 83% | 1014.8 hPa | - | - | 24 W/m² | - |
| 1777472624 | 11.11° C | 83% | 1014.9 hPa | - | - | 23 W/m² | - |
| 1777472321 | 10.56° C | 84% | 1014.8 hPa | - | - | 22 W/m² | - |
| 1777472018 | 10.56° C | 85% | 1014.7 hPa | - | - | 21 W/m² | - |
| 1777471713 | 10.56° C | 85% | 1014.9 hPa | - | - | 20 W/m² | - |
| 1777471410 | 10.56° C | 85% | 1015 hPa | - | - | 19 W/m² | - |
| 1777471107 | 10.56° C | 86% | 1015 hPa | - | - | 18 W/m² | - |
| 1777470804 | 10° C | 88% | 1015.1 hPa | - | - | 17 W/m² | - |
| 1777470501 | 10° C | 90% | 1015.1 hPa | - | - | 15 W/m² | - |
| 1777470197 | 10° C | 89% | 1015.1 hPa | - | - | 14 W/m² | - |
| 1777469893 | 10° C | 89% | 1015.2 hPa | - | - | 12 W/m² | - |
| 1777469589 | 10° C | 89% | 1015.1 hPa | - | - | 11 W/m² | - |
| 1777469289 | 10° C | 88% | 1015.3 hPa | - | - | 9 W/m² | - |
| 1777468985 | 10° C | 88% | 1015.1 hPa | - | - | 7 W/m² | - |
* Rain since midnight (hover to see other rain measurements)
** Current wind speed in m/s (hover to see current wind gust speed)